TimeEST,TemperatureF,Dew PointF,Humidity,Sea Level PressureIn,VisibilityMPH,Wind Direction,Wind SpeedMPH,Gust SpeedMPH,PrecipitationIn,Events,Conditions,WindDirDegrees,DateUTC
12:53 AM,63.0,62.1,97,30.17,10.0,East,4.6,-,N/A,,Partly Cloudy,90,2012-11-27 05:53:00
1:53 AM,62.6,60.8,94,30.16,10.0,East,6.9,-,N/A,,Partly Cloudy,90,2012-11-27 06:53:00
2:53 AM,64.9,62.1,90,30.15,10.0,East,5.8,-,N/A,,Clear,100,2012-11-27 07:53:00
3:53 AM,64.9,63.0,93,30.14,10.0,ENE,3.5,-,N/A,,Mostly Cloudy,70,2012-11-27 08:53:00
4:53 AM,64.9,63.0,93,30.14,10.0,Calm,Calm,-,N/A,,Mostly Cloudy,0,2012-11-27 09:53:00
5:53 AM,66.0,64.0,93,30.15,10.0,Calm,Calm,-,N/A,,Mostly Cloudy,0,2012-11-27 10:53:00
6:53 AM,66.9,64.0,90,30.16,10.0,Calm,Calm,-,N/A,,Overcast,0,2012-11-27 11:53:00
7:53 AM,71.1,66.9,87,30.17,10.0,Variable,3.5,-,N/A,,Mostly Cloudy,0,2012-11-27 12:53:00
8:53 AM,75.9,66.0,71,30.19,10.0,SE,4.6,-,N/A,,Clear,130,2012-11-27 13:53:00
9:53 AM,79.0,64.9,62,30.19,10.0,ESE,11.5,18.4,N/A,,Partly Cloudy,120,2012-11-27 14:53:00
10:53 AM,80.1,64.9,60,30.18,10.0,SE,10.4,-,N/A,,Scattered Clouds,140,2012-11-27 15:53:00
11:53 AM,79.0,64.0,60,30.17,10.0,SSE,8.1,-,N/A,,Scattered Clouds,150,2012-11-27 16:53:00
12:53 PM,79.0,64.0,60,30.14,10.0,SE,9.2,-,N/A,,Scattered Clouds,140,2012-11-27 17:53:00
1:53 PM,79.0,64.0,60,30.12,10.0,SSE,9.2,-,N/A,,Scattered Clouds,160,2012-11-27 18:53:00
2:53 PM,78.1,64.0,62,30.10,10.0,SE,9.2,-,N/A,,Partly Cloudy,140,2012-11-27 19:53:00
3:53 PM,77.0,64.0,64,30.10,10.0,SSE,8.1,-,N/A,,Partly Cloudy,150,2012-11-27 20:53:00
4:53 PM,75.9,64.0,67,30.12,10.0,SSE,5.8,-,N/A,,Clear,150,2012-11-27 21:53:00
5:53 PM,73.9,64.9,73,30.12,10.0,SSE,4.6,-,N/A,,Clear,150,2012-11-27 22:53:00
6:53 PM,72.0,64.9,78,30.14,10.0,Calm,Calm,-,N/A,,Partly Cloudy,0,2012-11-27 23:53:00
7:53 PM,69.1,64.0,84,30.15,10.0,Calm,Calm,-,N/A,,Partly Cloudy,0,2012-11-28 00:53:00
8:53 PM,68.0,64.0,87,30.15,10.0,Calm,Calm,-,N/A,,Clear,0,2012-11-28 01:53:00
9:53 PM,66.9,63.0,87,30.14,10.0,Calm,Calm,-,N/A,,Clear,0,2012-11-28 02:53:00
10:53 PM,66.9,64.0,90,30.14,10.0,Calm,Calm,-,N/A,,Clear,0,2012-11-28 03:53:00
11:53 PM,66.0,64.0,93,30.14,10.0,Calm,Calm,-,N/A,,Clear,0,2012-11-28 04:53:00